Location: Chalifert
(48.8899°N, 2.7734°E)
Time: 23:17:53
(UTC+00:00)

Daily predictions for brighter satellites

Satellite Brightness Start Highest point End
(mag) Time Altitude Azimuth Time Altitude Azimuth Time Altitude Azimuth
Cosmos 1707 2.7 18:00:18 10° N 18:04:12 64° ENE 18:08:04 10° SSE
CZ-4B R/B 3.1 18:04:25 10° ENE 18:05:49 12° E 18:07:14 10° ESE
Cosmos 1400 Rocket 3.3 18:03:25 10° SSE 18:07:13 40° E 18:11:00 10° NNE
CZ-4B R/B 3.8 18:01:59 10° S 18:07:25 64° WSW 18:13:00 10° NNW
Nadezhda 3 Rocket 4.3 18:01:51 10° N 18:07:44 44° ENE 18:13:35 10° SE
Feng Yun 1-1 Rocket 4.2 18:02:32 10° SSE 18:07:54 71° ENE 18:13:20 10° NNW
Cosmos 1340 2.8 18:04:07 10° NNW 18:07:54 80° W 18:11:40 10° S
Cosmos 1461 4.1 18:04:25 10° NW 18:08:12 41° WSW 18:11:54 10° SSE
Cosmos 773 Rocket 4.1 18:04:39 10° NNW 18:09:53 60° ENE 18:15:06 10° SE
In-Cosmos 22 4.0 18:07:01 10° N 18:12:19 73° ENE 18:17:36 10° SSE
CZ-4 R/B 1.4 18:09:40 10° SSE 18:13:25 56° ENE 18:17:12 10° N
KORONAS-FOTON 4.3 18:10:12 10° N 18:13:46 38° ENE 18:17:20 10° SE
Meteor 1-21 4.5 18:09:08 10° NNW 18:14:48 78° W 18:20:24 10° S
Okean 2 3.6 18:13:17 10° NNW 18:17:23 79° W 18:21:28 10° S
SL-08 RB Rocket 3.6 18:15:10 10° SSE 18:19:36 70° ENE 18:24:05 10° N
BREEZE-M DEB (TANK) 4.0 18:08:45 10° WSW 18:19:50 69° SSE 18:23:14 10° E
SKYMED 2 3.9 18:15:34 10° N 18:19:55 75° WNW 18:24:15 10° SSW
Cosmos 1975 Rocket 3.8 18:16:04 10° N 18:20:05 32° ENE 18:24:06 10° SE
Landsat 5 3.8 18:17:11 10° N 18:21:06 68° WNW 18:25:07 10° SSW
SL-27 R/B 4.4 18:22:17 10° NNE 18:23:52 13° NE 18:25:14 11° ENE
Okean-O 2.8 18:24:04 10° SE 18:28:21 50° ENE 18:32:39 10° N
CENTAUR R/B 3.8 18:26:34 10° SE 18:29:57 16° ESE 18:33:37 10° ENE
USA 215 3.4 18:24:19 10° ESE 18:30:50 67° NNE 18:37:21 10° NW
CSL-04 Rocket 4.0 18:26:31 10° SE 18:31:38 46° ENE 18:36:50 10° N
Cosmos 2074 Rocket 4.0 18:27:12 10° S 18:33:28 85° E 18:39:48 10° N
Cosmos 1378 Rocket 4.4 18:30:59 10° NNW 18:35:20 56° W 18:39:40 10° S
Cosmos 1908 Rocket 3.6 18:35:58 10° S 18:40:27 86° E 18:44:57 10° N
Lacrosse 4 Rocket 4.2 18:39:10 10° WNW 18:41:06 13° NNW 18:43:03 10° N
HJ-1C 3.3 18:39:05 10° SSE 18:42:21 84° W 18:45:38 10° NNW
IRAS Rocket 4.5 18:37:19 10° NNE 18:42:58 78° WNW 18:48:34 10° SSW
Resurs 01 Rocket 3.5 18:43:13 12° ENE 18:44:12 13° ENE 18:46:15 10° NNE
Ariane Rocket 4.4 18:42:21 15° E 18:44:46 21° ENE 18:48:29 10° N
OBJECT-B 1.7 18:43:19 18° ESE 18:44:56 28° ENE 18:47:43 10° N
Cosmos 1184 Rocket 2.9 18:42:25 10° N 18:45:33 49° ENE 18:48:29 11° SSE
Helios 1A Rocket 4.3 18:44:58 17° E 18:46:26 20° ENE 18:49:27 10° NNE
Cosmos 1346 Rocket 2.7 18:44:36 10° N 18:48:39 74° ENE 18:52:40 10° SSE
ARGOS 4.1 18:44:02 10° S 18:49:14 50° W 18:54:29 10° NNW
Cosmos 2341 Rocket 4.4 18:44:33 10° SSE 18:50:26 42° E 18:56:23 10° NNE
YAOGAN 1 3.3 18:49:40 10° S 18:53:55 57° W 18:58:12 10° NNW
USA 305 3.4 18:50:08 10° WNW 18:54:17 51° NNE 18:56:53 21° E
DMSP B5D2-2 4.0 18:50:33 10° NNE 18:55:52 74° ESE 19:01:08 10° S
H-2A R/B 4.3 18:51:40 10° SSW 18:55:59 28° W 19:00:26 10° NW
SJ 16-02 1.4 18:51:56 10° S 18:56:15 54° ESE 19:00:36 10° NNE
Cosmos 2297 Rocket 4.1 18:53:01 10° N 18:56:21 16° NNE 18:59:03 12° ENE
USA 186 2.2 18:55:20 26° ESE 18:56:31 38° ENE 18:59:31 10° N
Okean O Rocket 4.1 18:53:02 10° SSW 18:56:34 24° W 19:00:08 10° NW
Cosmos 1538 Rocket 4.0 18:52:40 10° NNW 18:58:03 74° ENE 19:03:23 10° SSE
Cosmos 158 Rocket 3.9 18:53:35 10° NNW 18:58:35 62° ENE 19:02:32 16° SE
Cosmos 1943 Rocket 2.8 18:54:06 10° SW 18:59:35 58° WNW 19:05:11 10° NNE
Meteor 1-12 Rocket 4.3 18:53:41 10° S 18:59:39 69° E 19:05:35 10° NNE
NOSS 3-2 (A) 3.9 18:56:54 10° S 19:01:46 32° ESE 19:07:14 10° NE
Cosmos 1238 Rocket 4.1 18:57:48 10° SSW 19:03:57 69° W 19:09:13 10° N
ISS -3.2 19:02:34 10° WNW 19:05:52 51° N 19:07:19 28° ENE
CZ-2C R/B 3.8 19:01:15 10° N 19:06:33 48° WNW 19:11:54 10° SW
Cosmos 1441 Rocket 3.6 19:04:40 10° N 19:08:14 38° ENE 19:09:11 32° ESE
USA 307 3.3 19:05:52 10° WNW 19:10:03 54° NNE 19:12:02 28° E
Cosmos 1238 4.3 19:07:05 10° N 19:10:07 48° ENE 19:10:36 42° ESE
Geosat 3.9 19:07:43 10° NNE 19:12:47 80° ESE 19:17:48 10° SSW
PSLV R/B 3.9 19:08:48 10° NNE 19:12:55 58° ESE 19:16:57 10° S
Meteor 2-20 4.4 19:07:21 10° N 19:13:25 61° ENE 19:18:53 13° SSE
Cosmos 962 Rocket 4.4 19:09:21 10° S 19:15:30 71° E 19:21:37 10° NNE
Meteor 1-24 Rocket 3.9 19:11:57 10° N 19:17:09 47° ENE 19:19:55 26° SE
Cosmos 2227 Rocket 4.0 19:15:37 10° N 19:19:11 17° NE 19:21:08 14° ENE
Cosmos 2369 Rocket 2.3 19:13:51 10° SSW 19:19:31 80° WNW 19:25:11 10° NNE
Cosmos 1833 4.2 19:14:06 10° NNW 19:19:46 86° WSW 19:24:01 18° SSE
USA 276 2.0 19:17:10 10° W 19:20:19 75° N 19:20:47 59° ENE
Cosmos 1674 4.3 19:17:55 10° NNW 19:21:19 35° W 19:24:43 10° SSW
Okean 2 Rocket 3.4 19:19:52 30° SE 19:21:22 41° E 19:25:32 10° NNE
USA 306 3.0 19:18:15 10° WNW 19:22:29 63° NNE 19:23:53 38° E
H-2A R/B 3.2 19:20:25 10° N 19:24:25 44° WNW 19:28:20 10° SW
Lacrosse 5 rocket 3.8 19:21:34 10° WNW 19:24:52 20° SW 19:28:04 10° S
Cosmos 1777 Rocket 4.3 19:21:46 10° SSW 19:26:59 67° WNW 19:32:13 10° NNE
Cosmos 1626 3.2 19:25:44 10° NNW 19:29:16 44° W 19:32:47 10° SSW
USA 308 3.0 19:25:20 10° WNW 19:29:35 64° NNE 19:30:44 44° E
SPOT 3 Rocket 4.5 19:30:38 28° ENE 19:31:07 28° ENE 19:35:29 10° N
USA 281 4.5 19:26:14 10° NE 19:29:00 20° ENE 19:29:00 20° ENE
Cosmos 1782 Rocket 4.4 19:27:57 10° SSW 19:32:16 52° WNW 19:36:36 10° N
ATLAS CENTAUR R/B 4.5 19:31:02 10° WNW 19:33:38 15° WSW 19:36:16 10° SW
APEX 3.6 19:29:39 10° NNW 19:34:26 69° WSW 19:35:59 35° S
BREEZE-M R/B 2.4 19:31:38 10° W 19:35:13 89° N 19:36:12 47° E
Sich 1 Rocket 3.5 19:30:44 10° S 19:35:16 79° E 19:39:48 10° NNE
Cosmos 1656 Rocket 3.6 19:29:56 10° SSW 19:35:31 84° WNW 19:41:03 10° NNE
Cosmos 1726 4.1 19:38:29 17° NNE 19:38:29 17° NNE 19:39:29 10° NNE
Cosmos 1805 4.1 19:33:27 10° SSW 19:37:14 51° WNW 19:41:03 10° N
CZ-4B R/B 2.6 19:35:10 10° N 19:38:05 39° WNW 19:41:02 10° SW
Cosmos 1025 Rocket 3.2 19:33:52 10° NNW 19:38:12 70° W 19:41:03 21° S
SeaSat 1 2.4 19:36:15 34° SSE 19:38:26 87° ENE 19:43:24 10° NNW
SL-14 R/B 3.6 19:34:34 10° NNW 19:38:31 64° W 19:40:47 23° S
Cosmos 1536 Rocket 3.6 19:35:06 10° N 19:39:29 59° ENE 19:40:03 54° ESE
Cosmos 923 Rocket 3.9 19:34:19 10° NNW 19:39:32 74° ENE 19:41:23 41° SE
Cosmos 1315 Rocket 3.2 19:36:13 10° SSW 19:40:10 63° WNW 19:44:13 10° N
ERBS 4.2 19:38:37 10° NW 19:41:12 21° N 19:41:29 21° NNE
Meteor 2-20 Rocket 4.3 19:35:25 10° N 19:41:34 73° E 19:44:56 28° SSE
SJ-6B 3.1 19:41:52 30° S 19:43:49 70° W 19:47:55 10° NNW
SL-8 Rocket 3.9 19:40:06 10° S 19:46:23 83° E 19:52:45 10° N
CZ-4 R/B 4.3 19:46:44 10° WSW 19:48:46 14° W 19:50:51 10° WNW
IGS 5A 3.7 19:50:44 51° NE 19:50:44 51° NE 19:54:22 10° N
Cosmos 1680 Rocket 3.4 19:46:52 10° NNW 19:52:10 73° ENE 19:53:19 54° SE
Cosmos 1470 4.4 19:54:32 23° NNE 19:54:32 23° NNE 19:56:12 10° NNE
MOS 1 4.2 19:50:50 38° SSE 19:53:10 81° ENE 19:58:53 10° NNW
Meteor 2-10 4.0 19:47:41 10° S 19:53:18 78° E 19:58:47 10° NNE
Cosmos 2151 Rocket 3.4 19:55:30 70° SE 19:55:51 76° E 20:00:21 10° NNE
EO 1 Delta rocket 4.1 19:54:11 36° S 19:56:20 87° W 20:02:12 10° N
Cosmos 2219 4.4 19:51:40 10° NNW 19:56:21 26° NE 19:56:51 25° NE
SL-27 R/B 3.2 19:55:59 10° NNW 19:58:44 48° WNW 19:58:44 48° WNW
IRS-1A Rocket 4.3 19:59:35 40° SSE 20:01:54 89° ENE 20:07:52 10° NNW
Cosmos 1300 Rocket 4.3 19:59:43 10° SSW 20:04:00 51° WNW 20:08:16 10° N
Cosmos 1727 Rocket 3.9 19:58:28 10° N 20:04:49 75° E 20:06:40 48° SSE
SPOT 1/Viking Rocket 3.9 20:06:35 46° NE 20:06:35 46° NE 20:11:09 10° N
SL-08 R/B 4.4 20:05:56 55° ESE 20:06:26 57° E 20:12:27 10° NNE
Cosmos 2112 Rocket 3.9 20:06:00 10° NNW 20:11:18 88° ENE 20:11:50 73° SSE
Meteor 1-22 Rocket 4.3 20:06:10 10° SSW 20:11:46 80° WNW 20:17:41 10° N
USA 215 3.7 20:11:36 36° S 20:14:00 52° SW 20:20:24 10° WNW
Cosmos 1900 4.2 20:09:07 10° NW 20:14:02 76° WSW 20:14:14 75° SSW
Cosmos 990 Rocket 3.8 20:11:11 10° SSW 20:16:21 89° ESE 20:21:35 10° NNE
OBJECT-B 3.4 20:16:14 16° WSW 20:17:04 17° W 20:19:18 10° NW
Meteor 2-5 Rocket 4.5 20:12:51 10° NNW 20:18:12 48° W 20:21:30 22° SSW
CENTAUR R/B 2.4 20:13:17 10° SSW 20:19:10 78° SE 20:26:19 10° NE
Resurs 01 Rocket 1.9 20:20:48 61° NNW 20:20:48 61° NNW 20:24:28 10° NNW
Helios 1A Rocket 3.8 20:21:12 45° WSW 20:21:17 45° W 20:25:14 10° NNW
CZ-3 Stage 3 4.5 20:06:15 10° WSW 20:22:20 25° SSW 20:24:26 23° S
Resurs 1-3 4.3 20:21:57 47° WSW 20:22:23 49° W 20:26:40 10° NNW
Ariane Rocket 3.2 20:22:33 60° SSW 20:23:15 68° WSW 20:28:21 10° NNW
SPOT 5 4.3 20:32:01 31° NNE 20:32:01 31° NNE 20:35:21 10° N
Cosmos 2366 rocket 4.4 20:25:03 10° SSW 20:31:05 59° WNW 20:37:11 10° N
Terra 3.8 20:34:21 19° NNE 20:34:21 19° NNE 20:36:11 10° N
USA 305 4.2 20:30:07 10° WNW 20:32:54 37° W 20:32:54 37° W
SJ 16-02 3.9 20:31:47 10° WSW 20:35:10 21° NW 20:38:33 10° N
Iridium 4 Rocket 4.5 20:34:32 10° N 20:36:53 31° N 20:36:53 31° N
Cosmos 2297 Rocket 2.6 20:36:06 10° NNW 20:40:51 52° NNE 20:40:51 52° NNE
ISS -0.8 20:39:27 10° WNW 20:40:17 16° WNW 20:40:17 16° WNW
Cosmos 1867 3.9 20:38:05 10° NW 20:42:49 63° N 20:42:49 63° N
USA 238 DEB 3.5 20:37:12 10° SW 20:43:45 86° NW 20:50:44 10° NE
USA 238 3.5 20:37:20 10° SW 20:43:52 87° NW 20:50:50 10° NE
Cosmos 1898 Rocket 4.3 20:50:28 44° N 20:50:28 44° N 20:54:09 10° NNE
NOSS 3-2 (A) 3.8 20:46:32 10° WSW 20:52:10 59° NW 20:58:47 10° NE
Cosmos 2227 Rocket 3.0 20:58:47 10° NNW 21:02:56 46° N 21:02:56 46° N
USA 281 3.3 21:09:58 10° NNE 21:15:50 69° N 21:15:50 69° N
Cosmos 2263 Rocket 4.1 21:12:14 10° N 21:15:21 21° NNE 21:15:21 21° NNE
Terra 4.4 22:13:15 17° NNW 22:13:15 17° NNW 22:14:24 10° NNW
CENTAUR R/B 3.9 22:04:40 10° W 22:10:33 37° NNW 22:17:33 10° NE
Cosmos 2297 Rocket 4.4 22:20:44 10° NW 22:22:39 18° WNW 22:22:39 18° WNW
ATLAS 3B R/B 4.5 23:21:01 24° NE 23:21:01 24° NE 23:23:31 10° NE
Cosmos 2344 4.4 23:30:38 10° NW 23:37:18 59° NW 23:37:18 59° NW
